TimeEDT,TemperatureF,Dew PointF,Humidity,Sea Level PressureIn,VisibilityMPH,Wind Direction,Wind SpeedMPH,Gust SpeedMPH,PrecipitationIn,Events,Conditions,WindDirDegrees,DateUTC
12:12 AM,64.4,62.6,94,30.11,5.0,Calm,Calm,-,N/A,,Overcast,0,2012-09-15 04:12:00
12:20 AM,64.4,60.8,88,30.11,2.5,Calm,Calm,-,N/A,,Overcast,0,2012-09-15 04:20:00
12:31 AM,62.6,60.8,94,30.11,6.0,Calm,Calm,-,N/A,,Overcast,0,2012-09-15 04:31:00
12:39 AM,64.4,60.8,88,30.11,3.0,Calm,Calm,-,N/A,,Overcast,0,2012-09-15 04:39:00
12:41 AM,64.4,60.8,88,30.11,1.5,Calm,Calm,-,N/A,,Overcast,0,2012-09-15 04:41:00
12:51 AM,66.2,62.6,88,30.11,0.8,SSW,3.5,-,N/A,,Overcast,200,2012-09-15 04:51:00
12:53 AM,66.0,63.0,90,30.11,0.8,Calm,Calm,-,N/A,,Overcast,0,2012-09-15 04:53:00
1:03 AM,64.4,62.6,94,30.10,2.0,Calm,Calm,-,N/A,,Overcast,0,2012-09-15 05:03:00
1:11 AM,64.4,60.8,88,30.10,9.0,South,3.5,-,N/A,,Overcast,170,2012-09-15 05:11:00
1:25 AM,64.4,60.8,88,30.10,1.5,Calm,Calm,-,N/A,,Overcast,0,2012-09-15 05:25:00
1:34 AM,64.4,62.6,94,30.09,0.5,Calm,Calm,-,N/A,Fog,Fog,0,2012-09-15 05:34:00
1:41 AM,64.4,62.6,94,30.09,0.8,Calm,Calm,-,N/A,,Overcast,0,2012-09-15 05:41:00
1:53 AM,64.0,61.0,90,30.08,1.5,Calm,Calm,-,N/A,,Overcast,0,2012-09-15 05:53:00
1:55 AM,62.6,60.8,94,30.08,3.0,Calm,Calm,-,N/A,,Overcast,0,2012-09-15 05:55:00
2:06 AM,62.6,60.8,94,30.08,0.8,Calm,Calm,-,N/A,,Mist,0,2012-09-15 06:06:00
2:48 AM,60.8,57.2,88,30.06,1.0,Calm,Calm,-,N/A,,Overcast,0,2012-09-15 06:48:00
2:53 AM,61.0,57.9,90,30.06,1.0,Calm,Calm,-,N/A,,Overcast,0,2012-09-15 06:53:00
3:05 AM,62.6,60.8,94,30.05,2.0,Calm,Calm,-,N/A,,Mostly Cloudy,0,2012-09-15 07:05:00
3:08 AM,62.6,60.8,94,30.05,3.0,Calm,Calm,-,N/A,,Overcast,0,2012-09-15 07:08:00
3:23 AM,62.6,60.8,94,30.05,10.0,Calm,Calm,-,N/A,,Mostly Cloudy,0,2012-09-15 07:23:00
3:33 AM,64.4,60.8,88,30.05,1.8,Calm,Calm,-,N/A,,Mostly Cloudy,0,2012-09-15 07:33:00
3:58 AM,62.6,59.0,88,30.05,3.0,WSW,3.5,-,N/A,,Scattered Clouds,240,2012-09-15 07:58:00
4:44 AM,62.6,60.8,94,30.04,1.8,Calm,Calm,-,0.01,,Partly Cloudy,0,2012-09-15 08:44:00
4:53 AM,63.0,59.0,87,30.04,4.0,Calm,Calm,-,0.01,,Partly Cloudy,0,2012-09-15 08:53:00
5:23 AM,60.8,57.2,88,30.04,1.5,Calm,Calm,-,N/A,,Partly Cloudy,0,2012-09-15 09:23:00
5:27 AM,60.8,57.2,88,30.04,0.8,Calm,Calm,-,N/A,,Mist,0,2012-09-15 09:27:00
5:53 AM,60.1,57.0,90,30.04,10.0,West,3.5,-,N/A,,Mostly Cloudy,260,2012-09-15 09:53:00
6:53 AM,64.9,63.0,93,30.04,10.0,WNW,3.5,-,N/A,,Mostly Cloudy,290,2012-09-15 10:53:00
7:53 AM,69.1,64.9,87,30.03,10.0,Calm,Calm,-,N/A,,Clear,0,2012-09-15 11:53:00
8:53 AM,75.0,66.9,76,30.04,10.0,WSW,5.8,-,N/A,,Partly Cloudy,250,2012-09-15 12:53:00
9:11 AM,73.4,66.2,78,30.03,10.0,West,9.2,-,N/A,,Mostly Cloudy,260,2012-09-15 13:11:00
9:39 AM,73.4,64.4,73,30.02,10.0,West,4.6,-,N/A,,Overcast,270,2012-09-15 13:39:00
9:53 AM,73.0,66.0,79,30.02,10.0,West,8.1,-,N/A,,Overcast,280,2012-09-15 13:53:00
10:02 AM,73.4,66.2,78,30.03,10.0,West,6.9,-,N/A,,Overcast,280,2012-09-15 14:02:00
10:53 AM,71.1,62.1,73,30.02,10.0,NW,13.8,-,N/A,,Overcast,320,2012-09-15 14:53:00
11:12 AM,73.4,62.6,69,30.01,10.0,NW,12.7,19.6,N/A,,Mostly Cloudy,320,2012-09-15 15:12:00
11:32 AM,71.6,60.8,69,30.01,10.0,NNW,13.8,-,N/A,,Mostly Cloudy,330,2012-09-15 15:32:00
11:53 AM,69.1,61.0,75,30.02,10.0,NW,13.8,20.7,0.00,Rain,Light Rain,310,2012-09-15 15:53:00
12:10 PM,66.2,60.8,83,30.02,7.0,NNW,17.3,-,0.05,Rain,Light Rain,330,2012-09-15 16:10:00
12:53 PM,70.0,57.9,65,30.01,10.0,NNW,8.1,-,0.05,,Mostly Cloudy,340,2012-09-15 16:53:00
1:53 PM,73.0,55.0,53,29.99,10.0,NNW,11.5,-,N/A,,Clear,340,2012-09-15 17:53:00
2:53 PM,73.9,54.0,50,29.98,10.0,WNW,10.4,-,N/A,,Clear,300,2012-09-15 18:53:00
3:53 PM,75.9,54.0,46,29.97,10.0,NW,8.1,-,N/A,,Clear,320,2012-09-15 19:53:00
4:53 PM,75.9,52.0,43,29.98,10.0,North,10.4,-,N/A,,Mostly Cloudy,360,2012-09-15 20:53:00
5:53 PM,73.0,52.0,48,29.99,10.0,NNW,9.2,-,N/A,,Scattered Clouds,340,2012-09-15 21:53:00
6:53 PM,64.9,51.1,61,30.01,10.0,NW,5.8,-,N/A,,Clear,320,2012-09-15 22:53:00
7:53 PM,62.1,50.0,65,30.02,10.0,NW,5.8,-,N/A,,Clear,320,2012-09-15 23:53:00
8:53 PM,57.0,48.9,74,30.03,10.0,NW,6.9,-,N/A,,Clear,310,2012-09-16 00:53:00
9:53 PM,63.0,51.1,65,30.04,10.0,North,5.8,-,N/A,,Clear,350,2012-09-16 01:53:00
10:53 PM,61.0,46.9,60,30.04,10.0,North,6.9,-,N/A,,Clear,350,2012-09-16 02:53:00
11:53 PM,61.0,46.9,60,30.05,10.0,NNE,5.8,-,N/A,,Clear,30,2012-09-16 03:53:00